Regional Weather Roundup
Issued by NWS

Home | Current Version | Previous Version | Graphics & Text | Print | Product List | Glossary On
Versions: 1 2 3 4 5 6 7 8 9 10 11 12 13 14 15 16 17 18 19 20 21 22 23 24 25 26 27 28 29 30 31 32 33 34 35 36 37 38 39 40 41 42 43 44 45 46 47 48 49 50
992
ASUS45 KBOU 231807
RWRCO

WEATHER ROUNDUP FOR COLORADO
NATIONAL WEATHER SERVICE DENVER/BOULDER CO
1200 PM MDT TUE MAY 23 2017

NOTE: "FAIR" INDICATES FEW OR NO CLOUDS BELOW 12000 FEET WITH NO
SIGNIFICANT WEATHER AND/OR OBSTRUCTIONS TO VISIBILITY.

COZ001>005-013-030-031-231900-
...NORTHWEST COLORADO...

CITY           SKY/WX    TMP DP  RH WIND       PRES   REMARKS
CRAIG          FAIR      51  34  52 VRB5      30.31F
HAYDEN         FAIR      46  32  57 NW5       30.31F
MEEKER         FAIR      54  31  41 VRB5      30.29F
RABBIT EARS PA MOCLDY    32  28  86 W8G18     30.36S FOG     WCI  25
STEAMBOAT SPGS FAIR      46  34  62 SE3       30.30F
WALDEN           N/A     46  30  53 N14G22    30.30F
$$

COZ006>008-011-231900-
...WEST CENTRAL VALLEYS...

CITY           SKY/WX    TMP DP  RH WIND       PRES   REMARKS
GRAND JUNCTION FAIR      62  29  28 SW9       30.24F
MONTROSE       FAIR      59  25  27 N8        30.27F
EAGLE          MOSUNNY   52  27  37 MISG      30.30F
RIFLE          FAIR      60  24  25 E3        30.25F
DELTA          FAIR      65  28  24 SW12      30.23F
NUCLA          FAIR      63  14  15 N13G22    30.28F
$$

COZ017>023-064>068-231900-
...SOUTHWEST COLORADO...

CITY           SKY/WX    TMP DP  RH WIND       PRES   REMARKS
DURANGO        FAIR      64  12  13 MISG      30.16F
CORTEZ         FAIR      65  18  16 NW21G30   30.20F
PAGOSA SPRINGS FAIR      60   7  12 W10G18    30.21S
TELLURIDE      NOT AVBL
WOLF CREEK PAS FAIR      36  10  35 NW5       30.42R
$$

COZ009-010-012-014-032>034-037-058>063-231900-
...CENTRAL COLORADO...

CITY           SKY/WX    TMP DP  RH WIND       PRES   REMARKS
ASPEN          FAIR      49  26  41 VRB6      30.29F
BUENA VISTA    FAIR      51  20  29 N24G30    30.24F
COPPER MTN     PTSUNNY   30  25  80 NW15      30.36S WCI  19
BERTHOUD PASS  CLOUDY    19   9  63 NW10G37   30.34R WCI   8
COTTONWOOD PAS FAIR      46  28  49 CALM      30.29F
GUNNISON       FAIR      53  24  32 W12       30.25F
KREMMLING      PTSUNNY   54  34  47 W7        30.30F
LEADVILLE      FAIR      38  22  52 N14G24    30.30F
MONARCH PASS   PTSUNNY   32  21  64 W14       30.46S WCI  22
SALIDA         FAIR      55  19  25 N7G17     30.30F
SUNLIGHT       CLOUDY    32  19  59 CALM      30.42S
WILKERSON PASS PTSUNNY   32  23  69 CALM      30.34S
$$

COZ069>075-231900-
...SAN LUIS VALLEY/SANGRE DE CRISTO MOUNTAINS...

CITY           SKY/WX    TMP DP  RH WIND       PRES   REMARKS
ALAMOSA        FAIR      57  18  21 NW8G20    30.21F
DEL NORTE      FAIR      55  18  24 N7        30.23F
LA VETA PASS   FAIR      37  30  75 NW7       30.40S
SAGUACHE       FAIR      54  19  26 NW15G24   30.23S
$$

COZ035-036-038>040-231900-
...NORTHERN COLORADO FRONT RANGE...

CITY           SKY/WX    TMP DP  RH WIND       PRES   REMARKS
DENVER INTL AP PTSUNNY   56  35  45 N18G32    30.17F
DMNS CITY PARK   N/A     58  26  29 N16G24    30.18F
AURORA         PTSUNNY   56  33  40 N16G23    30.19F
FRONT RANGE AP PTSUNNY   55  37  50 N23G31    30.18F
ERIE MUNI ARPT PTSUNNY   59  30  32 N12G21    30.17F
BOULDER MUN AP CLOUDY    55  30  38 N7        30.17F
CENTENNIAL     PTSUNNY   53  30  41 N16       30.19F
BROOMFIELD     PTSUNNY   57  28  33 N9        30.19F
FORT COLLINS   FAIR      58  32  37 N12       30.17F
LONGMONT       PTSUNNY   62  31  32 N13G18    30.18F
$$

COZ041-046-047-076>085-087-088-231900-
...PIKES PEAK/PALMER DIVIDE AND SOUTHERN FOOTHILLS...

CITY           SKY/WX    TMP DP  RH WIND       PRES   REMARKS
COLO. SPRINGS  PTSUNNY   53  26  35 NW12G38   30.20F
A. F. ACADEMY  CLOUDY    50  27  39 N13       30.20F
SCHRIEVER AFB  PTSUNNY   53  24  32 N20G30    30.20F
CHEYENNE MTN   FAIR      50  25  37 N15G22    30.15F
ELLICOTT       PTSUNNY  N/A N/A N/A N18G26    30.18F
FALCON         PTSUNNY   50  25  36 N16G25    30.21F
FORT CARSON    PTSUNNY   56  27  33 N10G21    30.19F
LIMON          CLOUDY    51  34  52 N22G31    30.17F
MONUMENT HILL  CLOUDY    45  27  49 N15G24    30.23F
CANON CITY     NOT AVBL
WALSENBURG     MOCLDY    55  34  44 E6        30.20F
TRINIDAD       CLOUDY    54  32  43 N15G23    30.20F
$$

COZ042>045-048>051-090-091-231900-
...NORTHEAST COLORADO...

CITY           SKY/WX    TMP DP  RH WIND       PRES   REMARKS
GREELEY ARPT   FAIR      60  38  43 NE16      30.17F
AKRON          CLOUDY    55  34  45 N21G30    30.14F
BURLINGTON     CLOUDY    58  38  47 NW17G24   30.11F
WRAY           PTSUNNY   61  36  39 N21G31    30.10F
YUMA           CLOUDY    55  23  28 NW22G30   30.11F
STERLING       CLOUDY    55  36  47 N16G22    30.13S
HOLYOKE        NOT AVBL
FORT MORGAN    CLOUDY    57  32  39 N14G21    30.16F
$$

COZ086-089-092>099-231900-
...SOUTHEAST COLORADO...

CITY           SKY/WX    TMP DP  RH WIND       PRES   REMARKS
PUEBLO         FAIR      63  28  26 N18G25    30.16F
LA JUNTA       PTSUNNY   61  32  33 N23G33    30.15F
LAMAR          FAIR      64  34  32 N25G31    30.09F
SPRINGFIELD      N/A     61  36  39 N28G33    30.11F
$$




USA.gov is the U.S. government's official web portal to all federal, state and local government web resources and services.